Temp_Advection
nan nan nan nan nan nan nan nan nan nan nan nan nan nan nan nan nan nan nan nan nan nan nan nan nan nan nan nan nan nan nan nan nan nan nan nan nan nan
nan 0 0 0 0 0 0 1 1 2 0 -4 -3 -1 0 1 1 0 -1 -1 -1 0 0 0 0 0 0 0 0 0 -0 -0 -0 -0 0 1 0 nan
nan 0 0 -0 0 0 0 0 0 1 1 -1 -2 -3 -2 -1 -0 1 0 -0 -1 -1 -0 0 0 0 0 0 1 1 0 0 -0 -0 -0 -0 -0 nan
nan 0 0 -0 -0 0 -0 -0 0 1 1 0 -0 -1 -1 -2 -2 -1 -1 -0 -0 -0 -0 -1 -0 -0 -0 0 0 0 1 1 0 0 -0 -0 -0 nan
nan -0 -0 -0 -0 -0 -0 -0 -0 0 0 0 0 -0 -0 -1 -1 -2 -2 -2 -1 0 0 -1 -1 -0 0 0 -0 -0 -0 -0 -0 -0 -0 0 0 nan
nan 0 -0 -0 -0 -1 -1 -1 -0 -0 -0 -0 -0 -0 -1 -1 -0 -1 -2 -2 -3 -2 -1 -0 -1 -1 -0 1 1 -0 -0 -1 -1 -1 -0 -0 -0 nan
nan 0 0 0 0 0 0 -0 -1 -1 -1 -1 -1 -1 -0 -1 -1 -0 -0 -1 -1 -1 -1 -2 -2 -1 -1 -1 0 0 0 -0 -0 -0 -1 -1 -0 nan
nan -0 -0 -0 0 0 1 1 1 0 0 -0 -1 -0 -1 -0 -0 -0 -0 -0 -0 -0 -0 -1 -1 -1 -1 -2 -2 -1 -0 -0 -0 -0 -0 -0 -0 nan
nan -0 -0 -0 -0 -0 -1 -0 0 1 0 0 -0 0 0 0 -0 -0 -0 -0 -1 0 0 -1 -0 -0 -1 -1 -1 -0 -0 -1 -0 -0 -1 -1 -0 nan
nan 0 -0 -0 -1 -0 -0 -1 -1 -0 -0 -0 -0 -0 -0 -0 0 -0 0 0 -0 0 1 -1 -1 -0 -1 -1 -0 0 0 -1 -0 0 -1 -1 -0 nan
nan -1 -1 -1 -0 -1 -1 -0 -0 -0 0 0 0 -0 -0 -1 -0 -0 -1 -0 -1 -1 1 -0 -1 -0 -1 -1 -1 -0 0 -0 -1 0 0 -1 -1 nan
nan -1 -1 -1 -1 -0 -0 -0 -0 -0 -0 -0 0 0 -0 -0 -0 -0 -0 -0 -0 -1 -0 -0 -0 -0 -1 -1 -1 -1 -1 0 -0 -1 -1 -0 -0 nan
nan -1 -0 -0 -0 -0 -0 -0 -0 -0 -0 -0 -0 0 -0 -0 -0 -0 0 0 -0 -1 0 0 -0 0 -0 -2 -2 -1 -1 -1 -1 -1 -0 -0 -0 nan
nan -0 0 0 -0 -0 -0 -1 -0 -0 -0 -0 -0 -0 -0 -0 -0 -0 -0 0 -0 -0 0 1 0 -0 -0 -0 -1 -1 -0 -1 -1 -1 -0 -0 -0 nan
nan 0 0 0 -0 -0 0 0 -0 -0 -0 -0 -0 -0 -0 -0 -1 -1 -0 0 0 -1 -1 0 0 0 0 -0 -0 -0 -0 -0 -0 -1 -0 0 -0 nan
nan -0 -0 -0 -0 -0 -0 0 -0 -0 -0 -0 -1 -0 -0 0 0 -0 -0 -0 -0 -1 -0 0 0 0 0 0 0 0 0 -0 -0 -0 -0 0 0 nan
nan -0 -0 -0 -0 -0 -0 -1 -1 -0 -0 0 -0 -1 -0 -0 -0 -0 0 0 0 -1 -1 -0 0 0 0 0 -0 0 0 -0 -0 -0 -0 0 -0 nan
nan -0 -0 -0 -0 -0 -1 -0 -0 0 -0 -0 0 0 -0 -0 -0 -0 -0 -0 -0 -0 -1 -1 -0 -0 -0 0 0 -0 -0 -0 -0 -0 0 0 0 nan
nan -0 -0 -0 -0 -0 -0 -0 -0 0 0 -1 -1 -0 -0 -1 -1 -0 -0 -0 -0 -0 -0 -0 -0 -0 -0 -0 -0 -0 -0 -0 -0 -0 0 0 0 nan
nan -0 -0 -1 -0 -0 -0 -0 -0 -1 -0 -0 -0 -0 -0 -0 -1 -1 -0 -0 -0 -0 -0 -0 -0 -0 -0 -0 -0 -0 -0 -0 -0 -0 -0 -0 0 nan
nan -1 -1 -0 -0 -0 -0 -0 -0 -0 -0 -0 -0 -0 -0 -0 -0 -0 -0 -0 -0 -0 -0 -0 -0 -0 -0 -0 -0 -0 -0 -0 -0 0 0 0 0 nan
nan -0 -0 -0 -0 -0 -0 -0 -0 -0 -0 -0 0 -0 -0 -0 -0 -0 -0 -0 -0 -0 -0 -0 -0 -0 -0 -0 -0 -0 -0 -0 -0 -0 0 0 0 nan
nan nan nan nan nan nan nan nan nan nan nan nan nan nan nan nan nan nan nan nan nan nan nan nan nan nan nan nan nan nan nan nan nan nan nan nan nan nan
Wind_Speed
12 14 16 16 18 19 21 23 25 30 34 38 38 37 37 36 33 31 30 30 31 31 31 32 35 35 35 33 33 33 32 32 32 31 29 27 27 26
15 17 18 19 21 22 24 24 26 29 31 34 36 38 38 39 36 34 32 32 31 32 33 33 33 35 37 38 38 37 35 34 33 33 32 31 28 28
18 20 21 23 24 25 26 26 27 28 35 39 36 34 35 36 37 35 35 34 34 32 32 33 34 35 36 37 37 36 36 34 32 31 31 31 30 30
22 24 24 26 27 27 28 28 29 28 33 39 38 37 35 32 33 34 34 35 33 29 28 30 32 32 33 34 36 39 39 37 36 36 34 33 32 32
25 26 27 28 29 28 28 29 29 30 31 36 41 39 38 35 36 35 34 34 33 33 32 30 28 27 28 30 31 32 33 36 38 38 36 36 35 34
25 25 26 27 28 29 30 31 32 33 34 36 39 41 40 40 36 35 37 34 36 34 33 32 33 32 32 30 29 29 30 32 34 37 38 38 39 37
25 26 27 29 29 30 32 33 34 34 35 36 39 40 38 30 27 27 29 32 29 28 30 31 32 33 33 30 31 31 31 32 34 33 32 37 39 40
28 29 30 31 31 32 33 33 33 33 32 31 28 29 34 33 31 32 30 33 38 34 30 35 36 38 39 39 39 36 32 29 29 32 33 34 36 40
30 31 33 33 33 34 34 34 32 28 26 30 36 38 35 33 31 34 36 38 40 37 33 39 41 36 36 35 36 37 36 35 35 34 32 32 35 37
32 33 35 35 34 34 33 32 31 32 33 34 34 37 38 39 36 36 38 37 39 41 36 35 38 37 36 35 32 33 35 34 30 32 32 32 32 36
33 33 34 34 30 25 28 33 35 36 36 35 32 32 31 31 31 32 33 30 36 45 39 29 33 30 36 42 39 35 32 31 29 29 27 29 32 35
35 35 32 26 28 29 30 33 38 39 37 37 34 34 32 32 33 27 28 30 33 38 22 23 37 34 35 38 32 37 40 36 34 33 36 32 29 34
34 33 29 31 28 29 30 32 33 35 37 35 38 37 34 32 29 25 23 24 28 36 34 29 37 37 32 41 46 39 37 37 35 31 27 27 29 29
30 31 33 30 31 31 32 33 33 32 35 34 32 33 32 32 32 29 27 26 25 29 28 27 32 32 36 40 42 38 34 35 33 29 30 27 27 31
31 31 31 34 36 38 29 26 27 25 26 28 30 32 32 33 32 29 24 23 26 28 28 29 31 28 30 36 40 37 33 32 29 24 22 21 24 20
31 32 35 37 30 25 27 29 28 26 27 29 30 30 30 29 28 26 28 27 30 36 29 30 27 25 31 28 29 29 25 23 20 20 20 17 14 14
29 33 37 32 31 33 33 31 36 31 29 29 30 30 30 29 28 27 26 30 29 34 33 26 23 23 20 20 20 19 18 17 17 18 13 10 11 11
29 33 31 30 32 33 35 36 33 32 30 31 30 30 31 30 30 30 25 28 26 31 30 25 27 24 19 14 12 15 14 14 14 12 5 7 8 8
27 28 29 31 34 36 36 35 34 34 31 31 32 31 28 31 29 24 33 28 28 27 25 23 27 21 17 17 15 11 12 9 9 8 10 9 8 8
26 26 29 34 36 35 36 33 34 32 27 26 29 32 31 27 27 27 24 24 24 28 25 22 22 18 16 16 16 13 9 7 5 6 8 10 11 12
27 28 32 34 34 36 33 32 32 34 26 26 24 26 22 22 25 22 22 23 23 23 24 24 21 17 15 14 13 12 10 8 8 8 8 9 11 13
28 30 35 32 33 32 31 31 29 28 30 28 24 24 23 22 23 22 23 26 24 23 21 21 19 15 13 11 12 12 10 9 10 10 10 12 13 10
28 34 31 32 31 31 30 29 29 27 28 28 23 23 21 23 22 23 24 22 22 19 19 22 19 15 12 12 13 13 13 12 12 13 13 15 18 20
Wind_Direction
314 311 311 310 305 304 303 302 301 296 300 305 308 309 310 308 304 299 294 289 285 283 278 273 269 267 267 268 271 273 273 272 269 267 267 264 264 264
315 311 310 310 309 306 304 301 297 294 288 294 300 302 303 303 305 304 301 295 288 283 280 275 272 270 267 266 268 271 271 271 269 267 268 266 262 260
315 314 312 309 308 307 306 305 303 300 295 299 302 303 300 301 301 301 301 300 297 292 283 278 273 269 269 270 269 268 268 266 265 265 264 263 260 256
311 309 308 308 308 308 307 306 305 303 300 302 306 307 307 308 305 304 304 304 305 306 300 295 287 279 272 267 267 267 265 264 263 262 263 262 258 255
310 309 311 310 310 309 308 307 305 303 301 301 303 306 307 309 308 305 304 301 300 302 302 299 297 288 285 279 273 269 266 264 261 263 261 260 260 254
310 309 310 311 310 311 309 308 308 306 304 302 302 305 307 310 308 307 305 302 300 298 295 296 298 295 288 283 278 276 274 268 263 259 260 258 258 256
310 310 311 310 309 307 306 308 309 307 306 304 303 304 308 312 309 308 302 303 302 305 304 299 297 294 292 287 279 277 274 270 269 266 264 258 257 257
315 313 310 307 306 304 304 304 304 306 304 304 303 301 299 299 299 301 298 300 300 304 303 297 298 294 292 295 294 290 285 280 278 274 268 262 254 256
314 312 310 309 307 305 303 301 301 301 301 303 303 304 305 306 307 301 300 299 297 300 299 299 297 289 293 296 295 295 290 287 276 279 276 269 262 253
315 313 312 312 312 310 313 314 311 309 309 308 303 301 301 303 299 298 299 296 297 297 301 296 302 298 299 297 294 289 288 282 281 275 276 268 263 262
316 316 317 318 321 321 313 310 308 306 309 309 302 300 300 298 293 299 298 302 301 297 301 296 303 300 298 297 297 295 293 286 291 284 284 275 264 256
322 325 327 322 318 313 311 311 310 311 313 312 308 303 301 300 304 302 298 295 297 297 309 295 302 307 303 296 292 292 298 289 287 282 280 276 271 256
321 322 320 322 319 317 313 307 306 311 306 302 304 305 307 310 314 311 305 300 297 292 299 300 299 302 289 292 293 296 299 295 296 293 284 273 261 257
321 320 323 325 317 318 313 310 307 305 301 304 303 305 310 313 316 314 309 302 296 294 302 303 297 298 295 292 292 300 297 295 290 283 288 285 270 263
321 323 322 322 321 320 325 320 315 312 310 308 309 312 313 313 313 311 311 311 316 312 305 314 314 301 296 291 294 299 301 297 294 291 293 287 278 262
325 322 318 319 318 324 327 336 333 323 317 311 310 311 313 314 315 315 315 316 311 318 321 317 314 312 300 300 299 296 296 289 302 296 296 277 268 258
317 310 316 323 323 326 330 329 334 328 319 318 317 318 321 322 320 321 317 323 315 312 320 324 327 321 310 304 299 306 304 308 313 301 276 248 244 245
312 316 323 327 328 330 330 330 325 325 323 321 321 322 324 321 319 320 317 318 311 317 322 328 331 327 324 313 320 328 326 315 314 296 245 245 248 236
323 323 325 327 329 329 328 325 324 326 324 321 322 317 320 322 312 301 318 317 316 318 322 328 325 328 325 322 326 326 325 317 309 286 251 251 258 251
323 324 326 330 330 329 326 323 325 322 317 314 308 310 308 316 318 312 313 317 317 321 319 322 323 317 316 314 315 321 318 316 309 292 280 273 271 264
327 327 329 331 327 322 321 320 310 315 320 324 316 325 318 319 323 321 321 319 316 315 315 320 324 314 302 299 306 314 318 308 302 288 277 274 266 265
327 326 329 323 321 327 321 320 321 320 320 323 325 324 322 321 321 319 319 318 318 317 314 316 318 311 308 307 311 309 307 303 303 299 281 275 272 266
328 326 320 323 327 328 329 327 323 322 321 320 327 328 328 324 324 323 321 319 321 319 318 315 312 305 307 306 303 305 307 303 297 292 285 283 276 271
Height
1517 1516 1514 1512 1510 1508 1505 1502 1498 1490 1486 1483 1481 1480 1478 1476 1474 1472 1469 1467 1464 1461 1460 1459 1458 1457 1456 1456 1456 1455 1454 1454 1453 1453 1453 1454 1454 1454
1515 1513 1511 1509 1506 1503 1500 1497 1494 1488 1480 1478 1478 1474 1471 1467 1465 1462 1460 1458 1456 1453 1450 1448 1446 1446 1445 1445 1444 1445 1444 1444 1444 1444 1444 1444 1445 1447
1512 1510 1507 1504 1502 1498 1495 1492 1488 1484 1473 1467 1466 1466 1464 1460 1458 1454 1451 1448 1445 1444 1441 1438 1437 1436 1435 1434 1433 1432 1433 1433 1434 1434 1435 1435 1436 1437
1509 1506 1503 1499 1497 1493 1489 1486 1481 1478 1471 1461 1459 1457 1455 1453 1450 1446 1443 1440 1436 1435 1432 1430 1427 1425 1424 1423 1422 1422 1422 1422 1422 1423 1425 1425 1426 1428
1504 1501 1498 1494 1490 1487 1483 1479 1475 1471 1466 1458 1450 1449 1446 1445 1440 1437 1435 1431 1429 1426 1423 1422 1420 1417 1414 1413 1412 1411 1411 1411 1412 1412 1412 1413 1416 1416
1499 1496 1492 1488 1484 1480 1476 1473 1468 1463 1459 1453 1446 1441 1438 1435 1432 1427 1423 1421 1417 1417 1414 1412 1410 1407 1406 1403 1402 1401 1400 1401 1401 1400 1401 1401 1402 1405
1495 1492 1488 1484 1480 1476 1470 1465 1461 1456 1451 1445 1440 1435 1431 1429 1427 1423 1418 1413 1410 1409 1406 1404 1401 1398 1395 1393 1392 1392 1390 1389 1389 1389 1389 1389 1390 1392
1489 1486 1482 1478 1474 1470 1465 1460 1456 1449 1444 1440 1435 1431 1428 1426 1421 1417 1413 1409 1401 1404 1400 1395 1394 1390 1387 1383 1381 1380 1379 1378 1378 1377 1377 1378 1378 1380
1483 1479 1474 1471 1466 1461 1456 1452 1448 1444 1441 1437 1430 1426 1420 1418 1414 1410 1406 1402 1397 1393 1392 1385 1384 1380 1378 1376 1373 1370 1368 1368 1367 1367 1366 1366 1367 1367
1477 1473 1467 1462 1458 1452 1446 1442 1438 1435 1432 1428 1424 1419 1416 1412 1409 1404 1398 1393 1389 1385 1385 1378 1374 1370 1369 1366 1363 1361 1358 1356 1356 1356 1355 1355 1355 1356
1471 1466 1460 1454 1450 1446 1441 1436 1430 1427 1425 1421 1417 1412 1408 1405 1402 1398 1393 1387 1380 1375 1375 1373 1367 1363 1360 1355 1352 1350 1349 1348 1347 1346 1345 1344 1344 1345
1462 1457 1453 1450 1446 1442 1437 1431 1424 1419 1415 1410 1407 1404 1401 1396 1394 1391 1387 1381 1377 1368 1368 1368 1361 1360 1350 1345 1342 1341 1340 1338 1337 1336 1335 1334 1334 1334
1456 1451 1448 1444 1440 1436 1432 1426 1420 1414 1409 1404 1399 1395 1392 1389 1385 1382 1379 1376 1371 1363 1363 1362 1353 1350 1349 1338 1331 1332 1330 1326 1326 1325 1324 1324 1323 1324
1451 1446 1441 1437 1434 1429 1424 1418 1414 1408 1402 1397 1392 1388 1384 1380 1377 1373 1370 1367 1365 1359 1356 1355 1347 1344 1339 1332 1326 1323 1322 1319 1318 1315 1314 1313 1312 1313
1446 1441 1436 1431 1426 1421 1415 1411 1406 1401 1396 1391 1386 1381 1378 1374 1370 1366 1363 1360 1356 1353 1349 1345 1340 1335 1332 1327 1320 1317 1314 1310 1309 1307 1305 1304 1304 1304
1440 1434 1430 1426 1421 1417 1411 1406 1400 1396 1391 1386 1381 1376 1372 1368 1364 1361 1357 1354 1350 1344 1342 1338 1333 1329 1324 1320 1316 1311 1309 1306 1303 1302 1301 1300 1300 1301
1436 1430 1424 1419 1413 1409 1403 1399 1394 1389 1384 1380 1376 1371 1366 1363 1359 1356 1352 1349 1344 1339 1333 1330 1326 1322 1318 1315 1310 1307 1303 1301 1299 1299 1298 1299 1300 1301
1429 1424 1418 1414 1409 1403 1398 1393 1389 1384 1380 1375 1371 1366 1362 1358 1353 1350 1348 1344 1339 1335 1329 1325 1321 1316 1313 1310 1307 1304 1301 1299 1298 1298 1298 1299 1299 1300
1424 1419 1414 1409 1404 1399 1394 1389 1383 1379 1374 1370 1365 1361 1357 1353 1349 1345 1342 1338 1334 1330 1325 1322 1319 1314 1311 1307 1305 1303 1300 1298 1297 1297 1298 1299 1300 1301
1419 1414 1410 1405 1399 1394 1389 1384 1378 1374 1369 1365 1361 1357 1352 1349 1344 1340 1337 1333 1329 1325 1321 1319 1315 1312 1309 1306 1304 1302 1300 1298 1297 1297 1297 1297 1298 1298
1414 1410 1406 1400 1395 1389 1384 1379 1374 1368 1363 1359 1355 1351 1347 1344 1340 1336 1333 1330 1327 1322 1318 1314 1312 1309 1306 1304 1302 1300 1298 1297 1296 1296 1295 1295 1295 1295
1410 1406 1400 1395 1389 1384 1378 1373 1367 1363 1359 1354 1350 1346 1343 1339 1335 1332 1329 1325 1322 1318 1314 1311 1309 1306 1304 1302 1300 1298 1297 1296 1295 1294 1294 1293 1293 1292
1405 1401 1395 1389 1383 1378 1372 1367 1363 1358 1354 1350 1345 1341 1338 1335 1332 1328 1325 1321 1318 1314 1311 1307 1305 1303 1301 1299 1298 1296 1294 1293 1292 1291 1291 1290 1289 1288